Showing default

TRANSIT 5B-2, 704

Orbit data source: Space-Track

TRANSIT 5B-2, 704 is a payload satellite owned by USN BuWeps (US) in LEO that was launched on Thu, 05 Dec 1963 UTC via a THOR ABLESTAR launch vehicle from the Air Force Western Test Range (AFWTR). Payload-class satellites include a variety of spacecraft equipped with specific instruments for various scientific and technological missions. These include communications satellites like Starlink; space stations such as the ISS; scientific satellites like the Hubble; Earth observation satellites from companies like Planet Labs, Umbra, and HawkEye 360; GPS; miniature CubeSats for education and research; and military/defense satellites.

Loading next visibility...
Identifier
704, 1963-049B
Orbit
LEO
Country
Flag of USUS
Related business
Manufacturer
APL
Mission
Spacecraft
Bus & Motor
TRANSIT 5, Unknown motor
Mass
75 kg wet, 75 kg dry
Launch date (UTC)
1963-12-05 (63 years ago)
Launch vehicle
THOR ABLESTAR
Launch site
Air Force Western Test Range (AFWTR)
Object type
Payload
Rocket body
Debris
Shape & HBR
OCT CYL + CYL + ANT, 15.0 m
Radar Cross Section
Large (>1 m²)

Expand to show TLE details & history
Last TLE update: 13 hours ago

TLE from 13 hours ago
0 TRANSIT 5B-2
1 00704U 63049B   26206.63047640  .00000059  00000-0  80700-4 0  9992
2 00704  89.9201  70.1351 0034581 185.6252 186.1939 13.47130024 76509
Epoch: 2026-07-25T15:07Z
TLE epoch observation values (Epoch: 2026-07-25T15:07:53.160Z)
Latitude
11.73144°
Longitude
-100.15989°
Altitude
1,110.687 km
Speed
7.285 km/s
True Right ascension
04h 40m 36s
True Declination
11° 39' 59"
Sunlit
Object was in daylight at epoch
Visualization orbit readout
Latitude
Unknown
Longitude
Unknown
Altitude
Unknown
Speed
Unknown
Apparent Right ascension
Unknown
Apparent Declination
Unknown
Sunlit
N/A
Visualization observer readout
Local Sidereal Time
17:05:08
Azimuth
Unknown
Elevation
Unknown
Doppler factor
Unknown
Orbital elements
Apogee altitude
1,105.681 km
Perigee altitude
1,054.1 km
Semi-major axis
7,458.027 km
Eccentricity
0.00346
Inclination
89.9201°
RAAN
70.1351°
Arg. of periapsis
185.6252°
True anomaly
186.15133°
Mean anomaly
186.1939°
Eccentric anomaly
186.1726°
Mean motion
3.36982 °/min
Orbital period
106.83 mins
BSTAR
0.0000807
Loading maneuver chart data...
Computing Atmospheric mass density...
Loading historical data...
Loading historical data...
Loading historical data...
Loading historical data...
Loading historical data...
Loading historical data...
Loading historical data...

Documentation

Showing up to 5 results
|